This is the latest recevied weather packets stored in our database for station/object SP6PWT-13. If no packets are shown the sender has not sent any weather packets the latest 10 day(s).
| Time | Temp. | Humidity | Pressure | Rain* | Wind** | Luminosity | Snow |
|---|---|---|---|---|---|---|---|
| 1777628125 | 17.22° C | 40% | 1011.2 hPa | 0 mm | - | 626 W/m² | - |
| 1777627815 | 17.22° C | 39% | 1011.2 hPa | 0 mm | - | 622 W/m² | - |
| 1777627515 | 17.22° C | 40% | 1011.3 hPa | 0 mm | - | 618 W/m² | - |
| 1777627214 | 17.22° C | 40% | 1011.4 hPa | 0 mm | - | 614 W/m² | - |
| 1777626913 | 17.22° C | 40% | 1011.4 hPa | 0 mm | - | 609 W/m² | - |
| 1777626613 | 17.22° C | 40% | 1011.4 hPa | 0 mm | - | 607 W/m² | - |
| 1777626312 | 16.67° C | 40% | 1011.4 hPa | 0 mm | - | 600 W/m² | - |
| 1777626011 | 16.67° C | 41% | 1011.5 hPa | 0 mm | - | 593 W/m² | - |
| 1777625711 | 16.67° C | 41% | 1011.4 hPa | 0 mm | - | 588 W/m² | - |
| 1777625411 | 16.11° C | 42% | 1011.4 hPa | 0 mm | - | 583 W/m² | - |
| 1777625110 | 16.67° C | 40% | 1011.5 hPa | 0 mm | - | 577 W/m² | - |
| 1777624809 | 16.11° C | 42% | 1011.5 hPa | 0 mm | - | 567 W/m² | - |
| 1777624509 | 15.56° C | 43% | 1011.6 hPa | 0 mm | - | 560 W/m² | - |
| 1777624208 | 16.11° C | 43% | 1011.6 hPa | 0 mm | - | 553 W/m² | - |
| 1777623908 | 16.11° C | 43% | 1011.6 hPa | 0 mm | - | 542 W/m² | - |
| 1777623607 | 16.11° C | 44% | 1011.7 hPa | 0 mm | - | 535 W/m² | - |
| 1777623307 | 15.56° C | 45% | 1011.5 hPa | 0 mm | - | 527 W/m² | - |
| 1777623006 | 15.56° C | 45% | 1011.7 hPa | 0 mm | - | 218 W/m² | - |
| 1777622705 | 15.56° C | 45% | 1011.5 hPa | 0 mm | - | 60 W/m² | - |
| 1777622405 | 15° C | 45% | 1011.5 hPa | 0 mm | - | 59 W/m² | - |
| 1777622104 | 15° C | 45% | 1011.5 hPa | 0 mm | - | 57 W/m² | - |
| 1777621803 | 15° C | 46% | 1011.6 hPa | 0 mm | - | 56 W/m² | - |
| 1777621503 | 15° C | 46% | 1011.7 hPa | 0 mm | - | 56 W/m² | - |
| 1777621202 | 14.44° C | 46% | 1011.5 hPa | 0 mm | - | 56 W/m² | - |
| 1777620902 | 14.44° C | 46% | 1011.4 hPa | 0 mm | - | 55 W/m² | - |
* Rain latest hour (hover to see other rain measurements)
** Current wind speed in m/s (hover to see current wind gust speed)